FW0683 Weather Reports


time (UTC)temp
F
wind
direction
speed
knots
gust
knots
rain 1hr
in
rain 24hr
in
rain mn
in
humidity
%
barometer
mb
20260505230039 77 230 0.0 4.3 0.00 0.00 0.00 41 1008.9
20260505224540 78 33 0.0 9.6 0.00 0.00 0.00 38 1008.8
20260505223040 79 265 0.0 1.7 0.00 0.00 0.00 38 1008.5
20260505221539 79 288 0.9 11.3 0.00 0.00 0.00 37 1008.2
20260505220041 80 79 0.0 3.5 0.00 0.00 0.00 37 1008.0
20260505214559 81 113 0.9 9.6 0.00 0.00 0.00 35 1007.9
20260505213037 81 239 0.0 7.8 0.00 0.00 0.00 33 1007.7
20260505211535 82 112 1.7 8.7 0.00 0.00 0.00 33 1007.6
20260505210033 81 236 0.9 7.8 0.00 0.00 0.00 35 1007.7
20260505204532 81 337 1.7 17.4 0.00 0.00 0.00 35 1007.5
20260505203036 82 211 0.0 9.6 0.00 0.00 0.00 34 1007.6
20260505201536 83 115 0.0 7.8 0.00 0.00 0.00 33 1007.8
20260505200028 81 233 0.0 7.0 0.00 0.00 0.00 35 1007.9
20260505194528 83 136 0.0 15.6 0.00 0.00 0.00 34 1008.1
20260505193026 84 257 0.0 8.7 0.00 0.00 0.00 33 1008.0
20260505191524 84 219 0.9 11.3 0.00 0.00 0.00 30 1008.5
20260505190024 85 269 0.0 8.7 0.00 0.00 0.00 33 1008.7
20260505184523 85 216 0.9 9.6 0.00 0.00 0.00 31 1009.1
20260505183019 84 152 0.0 9.6 0.00 0.00 0.00 33 1009.1
20260505181517 84 330 0.0 11.3 0.00 0.00 0.00 33 1009.4
20260505180027 83 257 0.0 9.6 0.00 0.00 0.00 35 1009.4
20260505174525 83 133 0.0 6.1 0.00 0.00 0.00 36 1009.6
20260505173015 82 142 0.0 11.3 0.00 0.00 0.00 36 1010.1
20260505171512 81 212 0.9 16.5 0.00 0.00 0.00 37 1010.2
20260505170006 81 27 0.0 5.2 0.00 0.00 0.00 38 1010.6
20260505164504 81 241 0.0 5.2 0.00 0.00 0.00 38 1010.7
20260505163002 81 293 0.0 4.3 0.00 0.00 0.00 37 1010.9
20260505161621 81 155 0.0 0.9 0.00 0.00 0.00 39 1011.1
20260505160104 79 321 0.0 2.6 0.00 0.00 0.00 40 1011.6
20260505153051 77 217 0.0 1.7 0.00 0.00 0.00 43 1012.1
20260505151547 76 278 0.0 1.7 0.00 0.00 0.00 44 1012.3
20260505124522 65 198 0.0 0.0 0.00 0.00 0.00 58 1012.7
20260505123018 63 278 0.0 0.9 0.00 0.00 0.00 61 1012.7
20260505121518 62 126 0.0 0.0 0.00 0.00 0.00 61 1012.7
20260505120017 63 90 0.0 0.9 0.00 0.00 0.00 59 1012.4
20260505114514 61 274 0.0 1.7 0.00 0.00 0.00 62 1012.4
20260505113009 59 221 0.0 0.0 0.00 0.00 0.00 65 1012.5
20260505111507 57 4 0.0 0.0 0.00 0.00 0.00 68 1012.6
20260505101510 53 246 0.0 0.0 0.00 0.00 0.00 70 1012.6
20260505100010 53 136 0.0 0.0 0.00 0.00 0.00 70 1012.5
20260505094502 52 233 0.0 0.0 0.00 0.00 0.00 71 1012.6
20260505093004 52 145 0.0 0.0 0.00 0.00 0.00 72 1012.6
20260505091501 51 236 0.0 0.0 0.00 0.00 0.00 73 1012.7
20260505090100 51 281 0.0 0.0 0.00 0.00 0.00 73 1012.6
20260505084559 51 165 0.0 0.0 0.00 0.00 0.00 73 1012.8
20260505083102 51 332 0.0 0.0 0.00 0.00 0.00 72 1012.9
20260505081602 51 332 0.0 0.0 0.00 0.00 0.00 72 1012.9
20260505080108 51 353 0.0 0.0 0.00 0.00 0.00 71 1013.0
20260505074557 51 276 0.0 0.0 0.00 0.00 0.00 72 1013.1
20260505073052 51 289 0.0 0.0 0.00 0.00 0.00 72 1013.2
20260505071557 51 203 0.0 0.0 0.00 0.00 0.00 71 1013.1
20260505070051 51 276 0.0 0.0 0.00 0.00 0.00 70 1013.1
20260505064546 52 340 0.0 0.0 0.00 0.00 0.00 68 1013.2
20260505063104 53 297 0.0 0.0 0.00 0.00 0.00 66 1013.2
20260505061606 53 244 0.0 0.0 0.00 0.00 0.00 66 1013.2
20260505060040 54 244 0.0 0.0 0.00 0.00 0.00 64 1013.4
20260505054537 55 222 0.0 0.0 0.00 0.00 0.00 62 1013.3
20260505053041 55 333 0.0 0.0 0.00 0.00 0.00 61 1013.4
20260505051555 56 143 0.0 0.0 0.00 0.00 0.00 60 1013.3
20260505041528 57 221 0.0 0.9 0.00 0.00 0.00 55 1013.4
20260505040026 58 160 0.0 0.0 0.00 0.00 0.00 55 1013.2
20260505034524 58 125 0.0 0.0 0.00 0.00 0.00 53 1013.2
20260505033025 59 320 0.0 0.9 0.00 0.00 0.00 52 1013.1
20260505031523 59 281 0.0 0.9 0.00 0.00 0.00 52 1013.0
20260505030023 60 59 0.0 1.7 0.00 0.00 0.00 51 1013.0
20260505024522 60 255 0.0 0.0 0.00 0.00 0.00 50 1013.2
20260505023022 61 171 0.0 0.9 0.00 0.00 0.00 49 1013.1
20260505021522 61 139 0.0 0.0 0.00 0.00 0.00 48 1013.0
20260505020021 62 252 0.0 4.3 0.00 0.00 0.00 49 1012.9
20260505014520 62 273 0.0 1.7 0.00 0.00 0.00 46 1012.7
20260505013020 62 225 0.0 3.5 0.00 0.00 0.00 47 1012.4
20260505011520 63 219 0.0 3.5 0.00 0.00 0.00 45 1012.1
20260505010019 63 180 0.0 5.2 0.00 0.00 0.00 43 1011.8
20260505004520 61 300 0.0 0.0 0.00 0.00 0.00 42 1011.4
20260505003022 61 334 0.0 0.0 0.00 0.00 0.00 42 1011.0
20260505001518 62 222 0.0 0.0 0.00 0.00 0.00 41 1010.7
20260505000017 63 222 0.0 0.0 0.00 0.00 0.00 40 1010.5
20260504234521 64 82 0.0 0.0 0.00 0.00 0.00 38 1010.2
20260504233016 66 164 0.0 0.0 0.00 0.00 0.00 36 1010.1
20260504231515 67 28 0.0 0.9 0.00 0.00 0.00 37 1010.0